Location: ??????
(56.0120°N, 39.1740°E)
Time: 21:52:37
(UTC+00:00)

Cosmos 2333 Rocket - Pass Details

Date: 14 April 2026
Orbit: 842 x 860 km, 70.8° (Epoch: 11 May)

Event Time Altitude Azimuth Distance (km) Brightness Sun altitude
Rises 22:43:14 0° 321° (NW) 3,411 5.8 -22.2°
Reaches altitude 10° 22:45:54 10° 330° (NNW) 2,474 5.1 -22.1°
Maximum altitude 22:51:05 35° 36° (NE) 1,343 3.8 -21.8°
Drops below altitude 10° 22:56:15 10° 102° (ESE) 2,471 4.8 -21.5°
Sets 22:58:55 0° 111° (ESE) 3,406 5.4 -21.4°
